Time,TemperatureF,DewpointF,PressureIn,WindDirection,WindDirectionDegrees,WindSpeedMPH,WindSpeedGustMPH,Humidity,HourlyPrecipIn,Conditions,Clouds,dailyrainin,SoftwareType,DateUTC
2013-06-20 00:01:00,58.2,51.7,30.10,ENE,69,0.0,0.0,79,0.00,,---,0.00,VWS V14.01,2013-06-20 04:01:00,
2013-06-20 00:05:00,54.9,53.6,30.14,ENE,77,3.1,66.3,96,0.00,,---,0.00,VWS V14.01,2013-06-20 04:05:00,
2013-06-20 00:06:00,58.4,52.1,30.10,ENE,69,0.0,0.0,80,71.26,,---,0.00,VWS V14.01,2013-06-20 04:06:00,
2013-06-20 00:11:00,57.9,51.8,30.10,ENE,69,0.0,0.0,80,0.00,,---,0.00,VWS V14.01,2013-06-20 04:11:00,
2013-06-20 00:14:00,56.0,52.9,30.13,West,262,0.0,3.9,89,0.00,,---,0.00,VWS V14.01,2013-06-20 04:14:00,
2013-06-20 00:16:00,58.1,52.2,30.10,ENE,69,0.0,0.0,81,12.25,,---,0.00,VWS V14.01,2013-06-20 04:16:00,
2013-06-20 00:21:00,57.3,51.7,30.10,ENE,69,0.0,0.0,82,0.00,,---,0.00,VWS V14.01,2013-06-20 04:21:00,
2013-06-20 00:26:00,57.1,51.7,30.10,ENE,69,0.0,0.0,82,0.00,,---,0.00,VWS V14.01,2013-06-20 04:26:00,
2013-06-20 00:31:00,57.1,51.9,30.11,ENE,69,0.0,0.0,83,0.00,,---,0.00,VWS V14.01,2013-06-20 04:31:00,
2013-06-20 00:36:00,56.9,52.0,30.11,ENE,69,0.0,0.0,84,0.00,,---,0.00,VWS V14.01,2013-06-20 04:36:00,
2013-06-20 00:41:00,57.2,52.6,30.11,ENE,69,0.0,0.0,85,0.00,,---,0.00,VWS V14.01,2013-06-20 04:41:00,
2013-06-20 00:46:00,56.1,51.8,30.11,ENE,69,0.0,0.0,86,0.00,,---,0.00,VWS V14.01,2013-06-20 04:46:00,
2013-06-20 00:51:00,56.6,52.5,30.11,South,179,0.6,1.2,86,0.00,,---,0.00,VWS V14.01,2013-06-20 04:51:00,
2013-06-20 00:56:00,56.3,52.3,30.12,South,183,0.0,0.0,86,0.00,,---,0.00,VWS V14.01,2013-06-20 04:56:00,
2013-06-20 01:01:00,56.3,52.3,30.12,South,183,0.0,0.0,86,0.00,,---,0.00,VWS V14.01,2013-06-20 05:01:00,
2013-06-20 01:06:00,56.5,52.6,30.12,ENE,68,0.0,0.4,87,0.00,,---,0.00,VWS V14.01,2013-06-20 05:06:00,
2013-06-20 01:10:00,56.3,52.5,30.12,ENE,68,0.0,0.0,87,0.00,,---,0.00,VWS V14.01,2013-06-20 05:10:00,
2013-06-20 01:15:00,56.6,52.8,30.12,ENE,68,0.0,0.0,87,0.00,,---,0.00,VWS V14.01,2013-06-20 05:15:00,
2013-06-20 01:20:00,56.0,52.3,30.12,West,276,1.2,1.2,87,0.00,,---,0.00,VWS V14.01,2013-06-20 05:20:00,
2013-06-20 01:25:00,56.1,52.5,30.12,South,177,0.6,1.8,88,0.00,,---,0.00,VWS V14.01,2013-06-20 05:25:00,
2013-06-20 01:30:00,55.9,52.4,30.12,SSE,167,0.0,1.8,88,0.00,,---,0.00,VWS V14.01,2013-06-20 05:30:00,
2013-06-20 01:35:00,56.4,52.9,30.12,ESE,112,0.0,2.1,88,0.00,,---,0.00,VWS V14.01,2013-06-20 05:35:00,
2013-06-20 01:40:00,55.7,52.3,30.12,South,177,0.0,2.1,88,0.00,,---,0.00,VWS V14.01,2013-06-20 05:40:00,
2013-06-20 01:45:00,56.8,53.5,30.12,SE,132,0.0,3.9,89,0.00,,---,0.00,VWS V14.01,2013-06-20 05:45:00,
2013-06-20 01:50:00,56.2,52.9,30.13,SSE,165,0.0,3.9,89,0.00,,---,0.00,VWS V14.01,2013-06-20 05:50:00,
2013-06-20 01:55:00,57.0,53.7,30.13,SSE,165,0.0,3.9,89,0.00,,---,0.00,VWS V14.01,2013-06-20 05:55:00,
2013-06-20 02:00:00,56.3,53.1,30.13,SSE,165,0.0,3.9,89,0.00,,---,0.00,VWS V14.01,2013-06-20 06:00:00,
2013-06-20 02:05:00,56.5,53.3,30.13,West,262,0.6,3.9,89,0.00,,---,0.00,VWS V14.01,2013-06-20 06:05:00,
2013-06-20 02:10:00,56.0,54.0,30.13,North,3,5.6,6.6,93,0.00,,---,0.00,VWS V14.01,2013-06-20 06:10:00,
2013-06-20 02:15:00,56.2,54.4,30.13,NNE,17,6.6,8.9,94,0.00,,---,0.00,VWS V14.01,2013-06-20 06:15:00,
2013-06-20 02:20:00,56.7,54.5,30.13,WNW,294,0.0,8.9,92,0.00,,---,0.00,VWS V14.01,2013-06-20 06:20:00,
2013-06-20 02:25:00,56.6,54.3,30.13,WNW,294,0.0,8.9,92,0.00,,---,0.00,VWS V14.01,2013-06-20 06:25:00,
2013-06-20 02:30:00,56.5,54.1,30.12,WSW,253,0.0,8.9,92,0.00,,---,0.00,VWS V14.01,2013-06-20 06:30:00,
2013-06-20 02:35:00,56.9,54.4,30.12,WSW,253,0.0,8.9,91,0.00,,---,0.00,VWS V14.01,2013-06-20 06:35:00,
2013-06-20 02:40:00,57.0,54.7,30.13,WSW,253,0.0,8.9,92,0.00,,---,0.00,VWS V14.01,2013-06-20 06:40:00,
2013-06-20 02:45:00,56.2,53.8,30.13,WSW,253,0.0,8.9,92,0.00,,---,0.00,VWS V14.01,2013-06-20 06:45:00,
2013-06-20 02:50:00,56.9,54.5,30.13,WSW,253,0.0,8.9,92,0.00,,---,0.00,VWS V14.01,2013-06-20 06:50:00,
2013-06-20 02:55:00,56.2,53.9,30.12,WSW,253,0.0,8.9,92,0.00,,---,0.00,VWS V14.01,2013-06-20 06:55:00,
2013-06-20 03:00:00,56.2,54.0,30.13,WSW,253,0.0,8.9,92,0.00,,---,0.00,VWS V14.01,2013-06-20 07:00:00,
2013-06-20 03:05:00,55.9,53.8,30.13,WSW,253,0.0,8.9,93,0.00,,---,0.00,VWS V14.01,2013-06-20 07:05:00,
2013-06-20 03:10:00,55.5,53.8,30.13,WSW,253,0.0,8.9,94,0.00,,---,0.00,VWS V14.01,2013-06-20 07:10:00,
2013-06-20 03:15:00,55.4,54.0,30.14,WSW,253,0.0,8.9,95,0.00,,---,0.00,VWS V14.01,2013-06-20 07:15:00,
2013-06-20 03:20:00,54.7,53.2,30.14,WSW,253,0.0,8.9,95,0.00,,---,0.00,VWS V14.01,2013-06-20 07:20:00,
2013-06-20 03:25:00,55.0,53.5,30.14,WSW,253,0.0,8.9,95,0.00,,---,0.00,VWS V14.01,2013-06-20 07:25:00,
2013-06-20 03:30:00,54.4,53.0,29.38,WSW,253,0.0,8.9,95,0.00,,---,0.00,VWS V14.01,2013-06-20 07:30:00,
2013-06-20 03:35:00,55.0,53.7,30.14,WSW,253,0.0,8.9,95,0.00,,---,0.00,VWS V14.01,2013-06-20 07:35:00,
2013-06-20 03:40:00,54.6,53.3,30.15,WSW,253,0.0,8.9,95,0.00,,---,0.00,VWS V14.01,2013-06-20 07:40:00,
2013-06-20 03:45:00,54.5,53.2,30.15,WSW,253,0.0,8.9,95,0.00,,---,0.00,VWS V14.01,2013-06-20 07:45:00,
2013-06-20 03:50:00,54.3,53.0,30.14,NNE,15,6.8,66.3,96,0.00,,---,0.00,VWS V14.01,2013-06-20 07:50:00,
2013-06-20 03:55:00,54.4,53.4,30.15,South,191,1.7,66.3,96,0.00,,---,0.00,VWS V14.01,2013-06-20 07:55:00,
2013-06-20 04:00:00,54.0,52.8,30.14,ENE,70,0.0,66.3,96,68.38,,---,0.00,VWS V14.01,2013-06-20 08:00:00,
2013-06-20 04:05:00,54.5,53.3,30.14,ENE,70,0.0,66.3,96,0.00,,---,0.00,VWS V14.01,2013-06-20 08:05:00,
2013-06-20 04:10:00,54.5,53.3,30.14,ENE,70,0.0,66.3,96,0.00,,---,0.00,VWS V14.01,2013-06-20 08:10:00,
2013-06-20 04:15:00,54.0,52.8,30.15,ENE,70,0.0,66.3,96,0.00,,---,0.00,VWS V14.01,2013-06-20 08:15:00,
2013-06-20 04:20:00,54.6,53.4,30.15,ENE,70,0.0,66.3,96,0.00,,---,0.00,VWS V14.01,2013-06-20 08:20:00,
2013-06-20 04:25:00,54.3,53.2,30.15,South,172,1.2,66.3,96,0.00,,---,0.00,VWS V14.01,2013-06-20 08:25:00,
2013-06-20 04:30:00,54.2,53.1,30.15,South,174,1.0,66.3,96,68.38,,---,0.00,VWS V14.01,2013-06-20 08:30:00,
2013-06-20 04:35:00,54.0,53.0,30.15,South,174,0.0,66.3,96,0.00,,---,0.00,VWS V14.01,2013-06-20 08:35:00,
2013-06-20 04:40:00,53.5,52.5,30.15,SSE,158,0.0,66.3,96,0.00,,---,0.00,VWS V14.01,2013-06-20 08:40:00,
2013-06-20 04:45:00,54.2,53.2,30.15,SSE,158,0.0,66.3,96,0.00,,---,0.00,VWS V14.01,2013-06-20 08:45:00,
2013-06-20 04:50:00,53.8,52.8,30.15,SSE,158,0.0,66.3,96,0.00,,---,0.00,VWS V14.01,2013-06-20 08:50:00,
2013-06-20 04:55:00,53.9,52.9,30.15,SSE,158,0.0,66.3,96,0.00,,---,0.00,VWS V14.01,2013-06-20 08:55:00,
2013-06-20 05:00:00,54.5,53.5,30.15,SSE,158,0.0,66.3,96,0.00,,---,0.00,VWS V14.01,2013-06-20 09:00:00,
2013-06-20 05:05:00,53.7,52.7,30.16,ESE,104,2.5,66.3,96,0.00,,---,0.00,VWS V14.01,2013-06-20 09:05:00,
2013-06-20 05:10:00,54.0,53.1,30.15,East,83,1.8,66.3,97,0.00,,---,0.00,VWS V14.01,2013-06-20 09:10:00,
2013-06-20 05:15:00,54.4,53.5,30.16,South,190,0.8,66.3,97,0.00,,---,0.00,VWS V14.01,2013-06-20 09:15:00,
2013-06-20 05:20:00,54.0,53.1,30.16,ENE,63,0.0,66.3,97,0.00,,---,0.00,VWS V14.01,2013-06-20 09:20:00,
2013-06-20 05:25:00,54.1,53.2,30.16,SSW,197,0.0,66.3,97,0.00,,---,0.00,VWS V14.01,2013-06-20 09:25:00,
2013-06-20 05:30:00,54.8,53.9,30.16,SSW,197,0.9,66.3,97,0.00,,---,0.00,VWS V14.01,2013-06-20 09:30:00,
2013-06-20 05:35:00,54.6,53.7,30.16,WSW,238,0.0,66.3,97,0.00,,---,0.00,VWS V14.01,2013-06-20 09:35:00,
2013-06-20 05:40:00,55.0,54.1,30.16,South,179,0.3,66.3,97,0.00,,---,0.00,VWS V14.01,2013-06-20 09:40:00,
2013-06-20 05:45:00,55.2,54.2,30.16,SSW,195,0.0,66.3,96,0.00,,---,0.00,VWS V14.01,2013-06-20 09:45:00,
2013-06-20 05:50:00,55.2,54.1,30.17,SSW,195,0.0,66.3,96,0.00,,---,0.00,VWS V14.01,2013-06-20 09:50:00,
2013-06-20 05:55:00,55.1,54.0,30.17,SSW,195,0.0,66.3,96,0.00,,---,0.00,VWS V14.01,2013-06-20 09:55:00,
2013-06-20 06:00:00,54.8,53.6,30.18,SSW,195,0.0,66.3,96,0.00,,---,0.00,VWS V14.01,2013-06-20 10:00:00,
2013-06-20 06:05:00,54.4,53.3,30.18,SSW,195,0.0,66.3,96,0.00,,---,0.00,VWS V14.01,2013-06-20 10:05:00,
2013-06-20 06:10:00,54.4,53.4,30.17,SSW,195,0.0,66.3,96,0.00,,---,0.00,VWS V14.01,2013-06-20 10:10:00,
2013-06-20 06:15:00,54.8,53.8,30.18,SSW,195,0.0,66.3,96,0.00,,---,0.00,VWS V14.01,2013-06-20 10:15:00,
2013-06-20 06:20:00,54.9,53.9,30.18,SSW,195,0.0,66.3,96,0.00,,---,0.00,VWS V14.01,2013-06-20 10:20:00,
2013-06-20 06:25:00,54.9,53.9,30.18,SSW,195,0.0,66.3,96,0.00,,---,0.00,VWS V14.01,2013-06-20 10:25:00,
2013-06-20 06:30:00,56.1,55.1,30.18,SSW,195,0.0,66.3,96,0.00,,---,0.00,VWS V14.01,2013-06-20 10:30:00,
2013-06-20 06:35:00,56.2,55.2,30.18,SSW,195,0.0,66.3,96,0.00,,---,0.00,VWS V14.01,2013-06-20 10:35:00,
2013-06-20 06:40:00,56.6,55.6,30.18,SSW,195,0.0,66.3,96,0.00,,---,0.00,VWS V14.01,2013-06-20 10:40:00,
2013-06-20 06:45:00,57.4,56.3,30.18,SSW,195,0.0,66.3,96,0.00,,---,0.00,VWS V14.01,2013-06-20 10:45:00,
2013-06-20 06:50:00,58.7,57.5,30.18,South,180,0.0,66.3,96,0.00,,---,0.00,VWS V14.01,2013-06-20 10:50:00,
2013-06-20 06:55:00,57.7,56.5,30.18,SSE,165,1.7,66.3,96,0.00,,---,0.00,VWS V14.01,2013-06-20 10:55:00,
2013-06-20 07:00:00,58.7,57.4,30.18,West,277,2.4,66.3,96,0.00,,---,0.00,VWS V14.01,2013-06-20 11:00:00,
2013-06-20 07:05:00,58.4,57.2,30.18,SSW,200,0.0,66.3,96,0.00,,---,0.00,VWS V14.01,2013-06-20 11:05:00,
2013-06-20 07:10:00,59.4,58.0,30.19,West,271,1.9,66.3,95,0.00,,---,0.00,VWS V14.01,2013-06-20 11:10:00,
2013-06-20 07:15:00,59.3,57.6,30.19,SW,229,2.3,66.3,94,0.00,,---,0.00,VWS V14.01,2013-06-20 11:15:00,
2013-06-20 07:20:00,60.3,58.2,30.19,West,280,3.2,66.3,93,0.00,,---,0.00,VWS V14.01,2013-06-20 11:20:00,
2013-06-20 07:25:00,60.0,57.8,30.19,SSE,150,1.9,66.3,92,0.00,,---,0.00,VWS V14.01,2013-06-20 11:25:00,
2013-06-20 07:30:00,60.6,57.8,30.19,WSW,239,1.6,66.3,90,0.00,,---,0.00,VWS V14.01,2013-06-20 11:30:00,
2013-06-20 07:35:00,61.3,58.2,30.19,East,94,1.9,66.3,89,0.00,,---,0.00,VWS V14.01,2013-06-20 11:35:00,
2013-06-20 07:39:00,61.7,58.3,30.19,WNW,285,0.0,66.3,89,0.00,,---,0.00,VWS V14.01,2013-06-20 11:39:00,
2013-06-20 07:44:00,62.3,58.7,30.20,ENE,65,0.2,66.3,88,0.00,,---,0.00,VWS V14.01,2013-06-20 11:44:00,
2013-06-20 07:49:00,62.6,58.6,30.19,ESE,121,0.0,66.3,87,0.00,,---,0.00,VWS V14.01,2013-06-20 11:49:00,
2013-06-20 07:54:00,62.8,58.5,30.20,North,3,2.5,66.3,86,0.00,,---,0.00,VWS V14.01,2013-06-20 11:54:00,
2013-06-20 07:59:00,63.2,58.4,30.20,WNW,297,1.8,66.3,84,0.00,,---,0.00,VWS V14.01,2013-06-20 11:59:00,
2013-06-20 08:04:00,63.4,58.2,30.19,WNW,285,0.9,66.3,83,0.00,,---,0.00,VWS V14.01,2013-06-20 12:04:00,
2013-06-20 08:09:00,63.5,56.1,30.19,SSW,207,5.2,66.3,77,0.00,,---,0.00,VWS V14.01,2013-06-20 12:09:00,
2013-06-20 08:14:00,63.9,56.7,30.19,SW,219,0.4,66.3,78,0.00,,---,0.00,VWS V14.01,2013-06-20 12:14:00,
2013-06-20 08:19:00,64.4,56.4,30.20,SSE,162,0.4,66.3,75,0.00,,---,0.00,VWS V14.01,2013-06-20 12:19:00,
2013-06-20 08:24:00,64.3,55.7,30.20,ESE,118,2.8,66.3,74,0.00,,---,0.00,VWS V14.01,2013-06-20 12:24:00,
2013-06-20 08:29:00,64.9,54.7,30.20,WSW,250,5.5,66.3,70,0.00,,---,0.00,VWS V14.01,2013-06-20 12:29:00,
2013-06-20 08:34:00,64.6,54.2,30.20,WSW,240,5.1,66.3,69,0.00,,---,0.00,VWS V14.01,2013-06-20 12:34:00,
2013-06-20 08:39:00,65.3,54.1,30.20,West,269,4.6,66.3,67,0.00,,---,0.00,VWS V14.01,2013-06-20 12:39:00,
2013-06-20 08:44:00,65.4,52.9,30.20,SSE,160,2.3,66.3,64,0.00,,---,0.00,VWS V14.01,2013-06-20 12:44:00,
2013-06-20 08:49:00,65.7,50.8,30.20,SW,224,2.1,66.3,59,0.00,,---,0.00,VWS V14.01,2013-06-20 12:49:00,
2013-06-20 08:54:00,65.6,50.7,30.20,SSW,212,5.3,66.3,58,0.00,,---,0.00,VWS V14.01,2013-06-20 12:54:00,
2013-06-20 08:59:00,65.3,50.0,30.20,WSW,245,3.0,66.3,58,0.00,,---,0.00,VWS V14.01,2013-06-20 12:59:00,
2013-06-20 09:04:00,67.1,51.1,30.20,NW,315,4.4,66.3,56,0.00,,---,0.00,VWS V14.01,2013-06-20 13:04:00,
2013-06-20 09:09:00,67.0,51.0,30.20,West,276,3.6,66.3,56,0.00,,---,0.00,VWS V14.01,2013-06-20 13:09:00,
2013-06-20 09:14:00,68.0,52.5,30.20,West,264,3.7,66.3,58,0.00,,---,0.00,VWS V14.01,2013-06-20 13:14:00,
2013-06-20 09:19:00,67.7,51.7,30.20,SSE,166,5.0,66.3,56,0.00,,---,0.00,VWS V14.01,2013-06-20 13:19:00,
2013-06-20 09:24:00,67.0,50.6,30.20,WSW,257,3.7,66.3,56,0.00,,---,0.00,VWS V14.01,2013-06-20 13:24:00,
2013-06-20 09:29:00,68.0,51.6,30.19,WSW,256,1.5,66.3,56,0.00,,---,0.00,VWS V14.01,2013-06-20 13:29:00,
2013-06-20 09:34:00,68.3,51.8,30.20,SSW,210,3.0,66.3,56,0.00,,---,0.00,VWS V14.01,2013-06-20 13:34:00,
2013-06-20 09:39:00,68.1,51.3,30.20,SW,215,4.5,66.3,55,0.00,,---,0.00,VWS V14.01,2013-06-20 13:39:00,
2013-06-20 09:44:00,67.8,49.9,30.20,WNW,287,4.7,66.3,53,0.00,,---,0.00,VWS V14.01,2013-06-20 13:44:00,
2013-06-20 09:49:00,68.7,51.5,30.20,SSW,205,5.3,66.3,54,0.00,,---,0.00,VWS V14.01,2013-06-20 13:49:00,
2013-06-20 09:54:00,68.1,50.4,30.20,West,259,8.8,66.3,53,0.00,,---,0.00,VWS V14.01,2013-06-20 13:54:00,
2013-06-20 09:59:00,69.1,51.5,30.20,WSW,256,4.4,66.3,53,0.00,,---,0.00,VWS V14.01,2013-06-20 13:59:00,
2013-06-20 10:04:00,68.3,50.4,30.20,NW,314,4.8,66.3,53,0.00,,---,0.00,VWS V14.01,2013-06-20 14:04:00,
2013-06-20 10:09:00,68.9,51.1,30.20,North,353,1.6,66.3,53,0.00,,---,0.00,VWS V14.01,2013-06-20 14:09:00,
2013-06-20 10:14:00,69.1,51.8,30.20,West,280,4.9,66.3,54,0.00,,---,0.00,VWS V14.01,2013-06-20 14:14:00,
2013-06-20 10:19:00,69.0,49.3,30.20,SSE,152,5.2,66.3,49,0.00,,---,0.00,VWS V14.01,2013-06-20 14:19:00,
2013-06-20 10:24:00,70.2,51.7,30.20,SW,236,4.1,66.3,52,0.00,,---,0.00,VWS V14.01,2013-06-20 14:24:00,
2013-06-20 10:29:00,70.2,50.6,30.20,SW,218,3.5,66.3,50,0.00,,---,0.00,VWS V14.01,2013-06-20 14:29:00,
2013-06-20 10:34:00,70.5,50.9,30.20,North,4,1.6,66.3,50,0.00,,---,0.00,VWS V14.01,2013-06-20 14:34:00,
2013-06-20 10:39:00,70.6,50.9,30.20,NW,315,1.5,66.3,50,0.00,,---,0.00,VWS V14.01,2013-06-20 14:39:00,
2013-06-20 10:44:00,70.5,49.7,30.20,SSE,153,6.0,66.3,48,0.00,,---,0.00,VWS V14.01,2013-06-20 14:44:00,
2013-06-20 10:49:00,70.9,51.0,30.20,WSW,252,8.0,66.3,49,0.00,,---,0.00,VWS V14.01,2013-06-20 14:49:00,
2013-06-20 10:54:00,70.2,51.5,30.20,West,280,4.2,66.3,51,0.00,,---,0.00,VWS V14.01,2013-06-20 14:54:00,
2013-06-20 10:59:00,70.9,50.8,30.20,North,359,3.8,66.3,49,0.00,,---,0.00,VWS V14.01,2013-06-20 14:59:00,
2013-06-20 11:04:00,71.0,52.0,30.20,WSW,255,4.3,66.3,51,0.00,,---,0.00,VWS V14.01,2013-06-20 15:04:00,
2013-06-20 11:09:00,70.9,51.0,30.20,WNW,294,2.1,66.3,49,0.00,,---,0.00,VWS V14.01,2013-06-20 15:09:00,
2013-06-20 11:14:00,70.2,50.1,30.20,West,271,4.2,66.3,49,0.00,,---,0.00,VWS V14.01,2013-06-20 15:14:00,
2013-06-20 11:19:00,71.6,50.9,30.20,NW,305,3.8,66.3,48,0.00,,---,0.00,VWS V14.01,2013-06-20 15:19:00,
2013-06-20 11:24:00,71.7,52.1,30.20,SW,231,6.6,66.3,50,0.00,,---,0.00,VWS V14.01,2013-06-20 15:24:00,
2013-06-20 11:29:00,71.4,51.7,30.20,SW,215,6.6,66.3,50,0.00,,---,0.00,VWS V14.01,2013-06-20 15:29:00,
2013-06-20 11:34:00,71.5,51.8,30.20,ENE,62,0.6,66.3,50,0.00,,---,0.00,VWS V14.01,2013-06-20 15:34:00,
2013-06-20 11:39:00,71.8,51.1,30.20,West,259,9.3,66.3,48,0.00,,---,0.00,VWS V14.01,2013-06-20 15:39:00,
2013-06-20 11:44:00,72.0,51.4,30.20,WNW,298,1.7,66.3,48,0.00,,---,0.00,VWS V14.01,2013-06-20 15:44:00,
2013-06-20 11:49:00,71.7,50.9,30.20,SSW,202,6.1,66.3,48,0.00,,---,0.00,VWS V14.01,2013-06-20 15:49:00,
2013-06-20 11:54:00,70.9,50.5,30.20,WSW,248,4.2,66.3,48,0.00,,---,0.00,VWS V14.01,2013-06-20 15:54:00,
2013-06-20 11:59:00,72.3,51.3,30.20,SE,145,6.8,66.3,48,0.00,,---,0.00,VWS V14.01,2013-06-20 15:59:00,
2013-06-20 12:04:00,72.4,50.8,30.20,WNW,290,1.8,66.3,47,0.00,,---,0.00,VWS V14.01,2013-06-20 16:04:00,
2013-06-20 12:09:00,72.7,50.5,30.20,North,359,0.8,66.3,46,0.00,,---,0.00,VWS V14.01,2013-06-20 16:09:00,
2013-06-20 12:14:00,72.7,51.7,30.20,SW,236,3.0,66.3,48,0.00,,---,0.00,VWS V14.01,2013-06-20 16:14:00,
2013-06-20 12:19:00,72.6,52.0,30.20,South,173,9.5,66.3,48,0.00,,---,0.00,VWS V14.01,2013-06-20 16:19:00,
2013-06-20 12:24:00,73.5,53.2,30.20,SE,146,4.3,66.3,49,0.00,,---,0.00,VWS V14.01,2013-06-20 16:24:00,
2013-06-20 12:29:00,72.7,51.3,30.20,WSW,252,5.0,66.3,47,0.00,,---,0.00,VWS V14.01,2013-06-20 16:29:00,
2013-06-20 12:34:00,72.9,52.1,30.20,South,191,6.5,66.3,48,0.00,,---,0.00,VWS V14.01,2013-06-20 16:34:00,
2013-06-20 12:39:00,73.8,52.7,30.19,SW,226,3.3,66.3,48,0.00,,---,0.00,VWS V14.01,2013-06-20 16:39:00,
2013-06-20 12:44:00,73.7,50.5,30.19,East,97,1.5,66.3,44,0.00,,---,0.00,VWS V14.01,2013-06-20 16:44:00,
2013-06-20 12:49:00,74.3,52.4,30.19,WSW,239,4.7,66.3,46,0.00,,---,0.00,VWS V14.01,2013-06-20 16:49:00,
2013-06-20 12:54:00,73.9,51.9,30.19,NNW,328,2.7,66.3,46,0.00,,---,0.00,VWS V14.01,2013-06-20 16:54:00,
2013-06-20 12:59:00,74.0,51.7,30.19,WSW,240,2.2,66.3,46,0.00,,---,0.00,VWS V14.01,2013-06-20 16:59:00,
2013-06-20 13:04:00,74.4,52.3,30.19,SW,228,0.8,66.3,46,0.00,,---,0.00,VWS V14.01,2013-06-20 17:04:00,
2013-06-20 13:09:00,74.1,52.3,30.19,South,186,5.0,66.3,46,0.00,,---,0.00,VWS V14.01,2013-06-20 17:09:00,
2013-06-20 13:14:00,74.3,50.8,30.19,SW,214,4.6,66.3,44,0.00,,---,0.00,VWS V14.01,2013-06-20 17:14:00,
2013-06-20 13:19:00,74.6,50.8,30.19,SSW,207,5.8,66.3,43,0.00,,---,0.00,VWS V14.01,2013-06-20 17:19:00,
2013-06-20 13:24:00,74.1,51.8,30.19,WSW,242,5.6,66.3,46,0.00,,---,0.00,VWS V14.01,2013-06-20 17:24:00,
2013-06-20 13:29:00,74.6,50.3,30.18,WSW,246,6.5,66.3,42,0.00,,---,0.00,VWS V14.01,2013-06-20 17:29:00,
2013-06-20 13:34:00,74.2,50.3,30.19,SE,132,4.7,66.3,43,0.00,,---,0.00,VWS V14.01,2013-06-20 17:34:00,
2013-06-20 13:39:00,75.0,52.0,30.19,SW,232,5.9,66.3,45,0.00,,---,0.00,VWS V14.01,2013-06-20 17:39:00,
2013-06-20 13:44:00,74.9,51.4,30.18,SSW,207,2.1,66.3,44,0.00,,---,0.00,VWS V14.01,2013-06-20 17:44:00,
2013-06-20 13:49:00,74.7,51.8,30.18,SSW,208,1.6,66.3,45,0.00,,---,0.00,VWS V14.01,2013-06-20 17:49:00,
2013-06-20 13:54:00,74.7,51.3,30.18,South,191,3.5,66.3,44,0.00,,---,0.00,VWS V14.01,2013-06-20 17:54:00,
2013-06-20 13:59:00,75.7,53.0,30.18,NW,311,0.6,66.3,45,0.00,,---,0.00,VWS V14.01,2013-06-20 17:59:00,
2013-06-20 14:04:00,73.6,51.1,30.18,WNW,291,3.0,66.3,45,0.00,,---,0.00,VWS V14.01,2013-06-20 18:04:00,
2013-06-20 14:09:00,74.7,51.2,30.18,West,280,4.2,66.3,44,0.00,,---,0.00,VWS V14.01,2013-06-20 18:09:00,
2013-06-20 14:13:00,73.9,51.2,30.18,WNW,294,2.9,66.3,45,0.00,,---,0.00,VWS V14.01,2013-06-20 18:13:00,
2013-06-20 14:18:00,74.2,51.5,30.18,NW,312,4.9,66.3,45,0.00,,---,0.00,VWS V14.01,2013-06-20 18:18:00,
2013-06-20 14:23:00,73.8,50.3,30.18,North,349,4.0,66.3,44,0.00,,---,0.00,VWS V14.01,2013-06-20 18:23:00,
2013-06-20 14:28:00,73.4,50.5,30.18,NE,49,2.4,66.3,44,0.00,,---,0.00,VWS V14.01,2013-06-20 18:28:00,
2013-06-20 14:33:00,74.3,53.0,30.17,SW,214,6.2,66.3,47,0.00,,---,0.00,VWS V14.01,2013-06-20 18:33:00,
2013-06-20 14:38:00,74.7,49.2,30.17,SW,219,5.4,66.3,41,0.00,,---,0.00,VWS V14.01,2013-06-20 18:38:00,
2013-06-20 14:43:00,75.0,50.8,30.17,SW,225,7.6,66.3,43,0.00,,---,0.00,VWS V14.01,2013-06-20 18:43:00,
2013-06-20 14:48:00,73.9,51.3,30.17,North,359,5.7,66.3,45,0.00,,---,0.00,VWS V14.01,2013-06-20 18:48:00,
2013-06-20 14:53:00,73.2,50.9,30.17,SSW,207,7.1,66.3,46,0.00,,---,0.00,VWS V14.01,2013-06-20 18:53:00,
2013-06-20 14:58:00,72.9,51.8,30.17,South,179,12.8,66.3,48,0.00,,---,0.00,VWS V14.01,2013-06-20 18:58:00,
2013-06-20 15:03:00,73.8,52.3,30.16,SSW,200,8.4,66.3,47,0.00,,---,0.00,VWS V14.01,2013-06-20 19:03:00,
2013-06-20 15:08:00,73.6,53.3,30.16,SSW,202,5.7,66.3,49,0.00,,---,0.00,VWS V14.01,2013-06-20 19:08:00,
2013-06-20 15:13:00,74.1,52.7,30.16,South,187,6.5,66.3,47,0.00,,---,0.00,VWS V14.01,2013-06-20 19:13:00,
2013-06-20 15:18:00,73.8,51.8,30.17,North,3,9.6,66.3,46,0.00,,---,0.00,VWS V14.01,2013-06-20 19:18:00,
2013-06-20 15:23:00,73.8,52.4,30.17,SE,138,6.6,66.3,47,0.00,,---,0.00,VWS V14.01,2013-06-20 19:23:00,
2013-06-20 15:28:00,72.9,51.3,30.17,South,169,9.1,66.3,47,0.00,,---,0.00,VWS V14.01,2013-06-20 19:28:00,
2013-06-20 15:33:00,73.9,53.0,30.17,East,91,6.8,66.3,48,0.00,,---,0.00,VWS V14.01,2013-06-20 19:33:00,
2013-06-20 15:38:00,73.8,51.8,30.16,SSE,155,11.9,66.3,46,0.00,,---,0.00,VWS V14.01,2013-06-20 19:38:00,
2013-06-20 15:43:00,73.2,50.5,30.17,South,173,7.8,66.3,45,0.00,,---,0.00,VWS V14.01,2013-06-20 19:43:00,
2013-06-20 15:48:00,73.7,52.2,30.17,South,172,5.5,66.3,47,0.00,,---,0.00,VWS V14.01,2013-06-20 19:48:00,
2013-06-20 15:53:00,73.8,51.8,30.17,SSE,163,10.8,66.3,46,0.00,,---,0.00,VWS V14.01,2013-06-20 19:53:00,
2013-06-20 15:58:00,73.8,51.9,30.17,SSE,163,9.4,66.3,46,0.00,,---,0.00,VWS V14.01,2013-06-20 19:58:00,
2013-06-20 16:03:00,74.0,52.4,30.17,South,177,8.2,66.3,47,0.00,,---,0.00,VWS V14.01,2013-06-20 20:03:00,
2013-06-20 16:08:00,73.5,51.7,30.17,SE,146,8.0,66.3,46,0.00,,---,0.00,VWS V14.01,2013-06-20 20:08:00,
2013-06-20 16:13:00,74.0,52.0,30.16,SSE,149,9.9,66.3,46,0.00,,---,0.00,VWS V14.01,2013-06-20 20:13:00,
2013-06-20 16:18:00,74.4,51.8,30.17,SSE,160,10.4,66.3,45,0.00,,---,0.00,VWS V14.01,2013-06-20 20:18:00,
2013-06-20 16:23:00,73.6,50.2,30.16,SSE,163,13.2,66.3,44,0.00,,---,0.00,VWS V14.01,2013-06-20 20:23:00,
2013-06-20 16:28:00,74.2,51.3,30.17,SSE,155,11.4,66.3,45,0.00,,---,0.00,VWS V14.01,2013-06-20 20:28:00,
2013-06-20 16:33:00,73.4,50.1,30.17,South,187,5.2,66.3,44,0.00,,---,0.00,VWS V14.01,2013-06-20 20:33:00,
2013-06-20 16:38:00,73.8,51.4,30.17,SSE,167,8.1,66.3,45,0.00,,---,0.00,VWS V14.01,2013-06-20 20:38:00,
2013-06-20 16:43:00,73.3,50.8,30.17,South,170,7.2,66.3,45,0.00,,---,0.00,VWS V14.01,2013-06-20 20:43:00,
2013-06-20 16:48:00,73.9,50.3,30.16,South,172,11.6,66.3,43,0.00,,---,0.00,VWS V14.01,2013-06-20 20:48:00,
2013-06-20 16:53:00,73.7,49.9,30.17,NNE,30,9.6,66.3,43,0.00,,---,0.00,VWS V14.01,2013-06-20 20:53:00,
2013-06-20 16:58:00,74.8,51.5,30.16,East,101,9.6,66.3,44,0.00,,---,0.00,VWS V14.01,2013-06-20 20:58:00,
2013-06-20 17:03:00,74.8,52.2,30.16,SSW,195,7.6,66.3,45,0.00,,---,0.00,VWS V14.01,2013-06-20 21:03:00,
2013-06-20 17:08:00,74.2,51.1,30.16,SSW,193,7.6,66.3,44,0.00,,---,0.00,VWS V14.01,2013-06-20 21:08:00,
2013-06-20 17:13:00,74.9,50.7,30.16,South,170,13.4,66.3,43,0.00,,---,0.00,VWS V14.01,2013-06-20 21:13:00,
2013-06-20 17:18:00,74.0,51.0,30.16,SE,139,13.5,66.3,44,0.00,,---,0.00,VWS V14.01,2013-06-20 21:18:00,
2013-06-20 17:23:00,73.5,50.4,30.16,SSE,156,9.1,66.3,44,0.00,,---,0.00,VWS V14.01,2013-06-20 21:23:00,
2013-06-20 17:28:00,74.0,51.3,30.16,South,179,7.4,66.3,45,0.00,,---,0.00,VWS V14.01,2013-06-20 21:28:00,
2013-06-20 17:33:00,73.5,51.1,30.16,South,177,3.6,66.3,45,0.00,,---,0.00,VWS V14.01,2013-06-20 21:33:00,
2013-06-20 17:38:00,73.0,49.8,30.16,North,359,12.4,12.4,44,0.00,,---,0.00,VWS V14.01,2013-06-20 21:38:00,
2013-06-20 17:43:00,74.1,50.9,30.16,SSE,166,4.0,8.8,44,0.00,,---,0.00,VWS V14.01,2013-06-20 21:43:00,
2013-06-20 17:48:00,73.0,50.5,30.16,SSE,158,8.9,8.9,45,0.00,,---,0.00,VWS V14.01,2013-06-20 21:48:00,
2013-06-20 17:53:00,73.0,50.2,30.16,South,169,12.2,14.4,45,0.00,,---,0.00,VWS V14.01,2013-06-20 21:53:00,
2013-06-20 17:58:00,72.8,50.2,30.16,SSE,167,7.0,13.3,45,0.00,,---,0.00,VWS V14.01,2013-06-20 21:58:00,
2013-06-20 18:03:00,73.1,50.2,30.17,South,180,10.7,13.2,44,0.00,,---,0.00,VWS V14.01,2013-06-20 22:03:00,
2013-06-20 18:08:00,73.9,51.5,30.17,SSW,202,8.6,9.1,46,0.00,,---,0.00,VWS V14.01,2013-06-20 22:08:00,
2013-06-20 18:13:00,73.8,51.7,30.17,South,183,11.4,11.6,46,0.00,,---,0.00,VWS V14.01,2013-06-20 22:13:00,
2013-06-20 18:18:00,73.2,51.0,30.17,East,79,6.0,8.9,46,0.00,,---,0.00,VWS V14.01,2013-06-20 22:18:00,
2013-06-20 18:23:00,72.5,50.3,30.17,SSW,195,9.3,12.7,46,0.00,,---,0.00,VWS V14.01,2013-06-20 22:23:00,
2013-06-20 18:28:00,71.8,50.1,30.17,SSE,167,10.7,10.7,46,0.00,,---,0.00,VWS V14.01,2013-06-20 22:28:00,
2013-06-20 18:33:00,73.0,51.5,30.17,South,173,10.8,10.8,47,0.00,,---,0.00,VWS V14.01,2013-06-20 22:33:00,
2013-06-20 18:38:00,72.0,50.9,30.17,South,174,8.0,10.3,47,0.00,,---,0.00,VWS V14.01,2013-06-20 22:38:00,
2013-06-20 18:43:00,72.7,51.6,30.17,SSE,163,7.2,9.4,48,0.00,,---,0.00,VWS V14.01,2013-06-20 22:43:00,
2013-06-20 18:48:00,71.6,50.4,30.17,South,187,10.7,15.1,47,0.00,,---,0.00,VWS V14.01,2013-06-20 22:48:00,
2013-06-20 18:53:00,71.7,51.4,30.17,South,180,7.8,9.4,49,0.00,,---,0.00,VWS V14.01,2013-06-20 22:53:00,
2013-06-20 18:58:00,71.6,51.2,30.17,SSE,152,7.0,9.4,48,0.00,,---,0.00,VWS V14.01,2013-06-20 22:58:00,
2013-06-20 19:03:00,70.9,51.0,30.17,South,170,9.7,9.9,49,0.00,,---,0.00,VWS V14.01,2013-06-20 23:03:00,
2013-06-20 19:08:00,71.4,51.2,30.17,SSE,163,11.9,14.2,49,0.00,,---,0.00,VWS V14.01,2013-06-20 23:08:00,
2013-06-20 19:13:00,70.6,50.8,30.17,South,170,9.5,14.6,50,0.00,,---,0.00,VWS V14.01,2013-06-20 23:13:00,
2013-06-20 19:16:00,63.6,51.3,30.20,SW,228,3.4,3.8,64,0.00,,---,0.00,VWS V14.01,2013-06-20 23:16:00,
2013-06-20 19:18:00,70.2,50.2,30.17,South,183,9.8,11.2,49,0.00,,---,0.00,VWS V14.01,2013-06-20 23:18:00,
2013-06-20 19:23:00,70.3,50.8,30.17,SSE,156,8.8,10.4,50,0.00,,---,0.00,VWS V14.01,2013-06-20 23:23:00,
2013-06-20 19:28:00,70.9,51.0,30.17,South,176,10.6,10.8,49,0.00,,---,0.00,VWS V14.01,2013-06-20 23:28:00,
2013-06-20 19:33:00,70.5,50.9,30.17,South,191,6.5,7.0,50,0.00,,---,0.00,VWS V14.01,2013-06-20 23:33:00,
2013-06-20 19:38:00,70.5,50.8,30.18,South,184,6.0,8.6,50,0.00,,---,0.00,VWS V14.01,2013-06-20 23:38:00,
2013-06-20 19:43:00,70.3,50.7,30.18,SSE,153,6.3,7.6,50,0.00,,---,0.00,VWS V14.01,2013-06-20 23:43:00,
2013-06-20 19:48:00,69.6,50.3,30.18,SW,219,5.8,7.1,50,0.00,,---,0.00,VWS V14.01,2013-06-20 23:48:00,
2013-06-20 19:53:00,70.5,50.9,30.17,SSW,208,3.7,5.8,50,0.00,,---,0.00,VWS V14.01,2013-06-20 23:53:00,
2013-06-20 19:58:00,69.1,48.8,30.18,SW,231,6.6,10.6,48,0.00,,---,0.00,VWS V14.01,2013-06-20 23:58:00,
2013-06-20 20:03:00,70.0,49.7,30.18,South,190,5.3,6.9,48,0.00,,---,0.00,VWS V14.01,2013-06-21 00:03:00,
2013-06-20 20:08:00,69.1,48.5,30.17,South,187,8.8,10.1,48,0.00,,---,0.00,VWS V14.01,2013-06-21 00:08:00,
2013-06-20 20:12:00,69.7,49.2,30.18,South,186,4.7,8.8,48,0.00,,---,0.00,VWS V14.01,2013-06-21 00:12:00,
2013-06-20 20:17:00,69.8,49.5,30.18,SW,228,4.7,6.4,48,0.00,,---,0.00,VWS V14.01,2013-06-21 00:17:00,
2013-06-20 20:22:00,69.0,49.1,30.18,South,184,4.6,6.0,49,0.00,,---,0.00,VWS V14.01,2013-06-21 00:22:00,
2013-06-20 20:27:00,68.6,49.1,30.18,SSW,204,7.0,7.0,50,0.00,,---,0.00,VWS V14.01,2013-06-21 00:27:00,
2013-06-20 20:32:00,68.3,49.0,30.18,South,179,6.0,9.6,50,0.00,,---,0.00,VWS V14.01,2013-06-21 00:32:00,
2013-06-20 20:37:00,68.3,49.3,30.18,South,173,4.7,5.5,51,0.00,,---,0.00,VWS V14.01,2013-06-21 00:37:00,
2013-06-20 20:42:00,67.3,48.6,30.18,South,179,6.1,6.1,51,0.00,,---,0.00,VWS V14.01,2013-06-21 00:42:00,
2013-06-20 20:47:00,67.8,49.2,30.18,South,186,8.1,8.1,51,0.00,,---,0.00,VWS V14.01,2013-06-21 00:47:00,
2013-06-20 20:52:00,67.2,48.8,30.18,South,169,3.0,4.5,52,0.00,,---,0.00,VWS V14.01,2013-06-21 00:52:00,
2013-06-20 20:57:00,67.2,49.0,30.18,South,191,6.0,6.6,52,0.00,,---,0.00,VWS V14.01,2013-06-21 00:57:00,
2013-06-20 21:02:00,67.0,49.0,30.18,SSW,207,3.1,3.4,52,0.00,,---,0.00,VWS V14.01,2013-06-21 01:02:00,
2013-06-20 21:07:00,66.4,48.2,30.18,South,183,6.6,8.4,52,0.00,,---,0.00,VWS V14.01,2013-06-21 01:07:00,
2013-06-20 21:12:00,66.9,48.7,30.18,SW,221,4.7,6.4,52,0.00,,---,0.00,VWS V14.01,2013-06-21 01:12:00,
2013-06-20 21:17:00,66.4,48.4,30.18,SSW,207,2.1,6.0,52,0.00,,---,0.00,VWS V14.01,2013-06-21 01:17:00,
2013-06-20 21:20:00,65.4,47.5,30.19,SSW,210,5.9,7.5,52,0.00,,---,0.00,VWS V14.01,2013-06-21 01:20:00,
2013-06-20 21:22:00,66.7,48.6,30.18,SSW,210,8.7,8.7,52,0.00,,---,0.00,VWS V14.01,2013-06-21 01:22:00,
2013-06-20 21:27:00,66.8,48.7,30.18,South,190,9.7,10.8,52,0.00,,---,0.00,VWS V14.01,2013-06-21 01:27:00,
2013-06-20 21:32:00,66.0,48.0,30.18,South,188,9.1,10.5,52,0.00,,---,0.00,VWS V14.01,2013-06-21 01:32:00,
2013-06-20 21:37:00,66.2,48.2,30.19,SSE,165,5.3,6.2,52,0.00,,---,0.00,VWS V14.01,2013-06-21 01:37:00,
2013-06-20 21:42:00,66.0,48.3,30.19,SW,229,4.7,6.5,53,0.00,,---,0.00,VWS V14.01,2013-06-21 01:42:00,
2013-06-20 21:47:00,65.4,47.9,30.19,SW,231,3.5,8.3,53,51.11,,---,0.00,VWS V14.01,2013-06-21 01:47:00,
2013-06-20 21:52:00,65.3,47.8,30.19,South,181,5.9,8.7,53,0.00,,---,0.00,VWS V14.01,2013-06-21 01:52:00,
2013-06-20 21:57:00,65.1,47.9,30.19,SSW,193,5.5,7.0,54,0.00,,---,0.00,VWS V14.01,2013-06-21 01:57:00,
2013-06-20 22:02:00,64.1,47.2,30.19,SE,146,2.3,4.1,54,0.00,,---,0.00,VWS V14.01,2013-06-21 02:02:00,
2013-06-20 22:07:00,64.6,47.7,30.19,SW,231,4.5,9.8,54,0.00,,---,0.00,VWS V14.01,2013-06-21 02:07:00,
2013-06-20 22:12:00,64.9,48.1,30.19,South,183,4.5,4.7,54,0.00,,---,0.00,VWS V14.01,2013-06-21 02:12:00,
2013-06-20 22:17:00,64.6,48.1,30.20,South,186,3.0,4.4,55,0.00,,---,0.00,VWS V14.01,2013-06-21 02:17:00,
2013-06-20 22:22:00,64.8,48.4,30.20,South,188,1.4,2.2,55,0.00,,---,0.00,VWS V14.01,2013-06-21 02:22:00,
2013-06-20 22:27:00,64.4,48.2,30.20,SSW,212,3.7,6.2,56,0.00,,---,0.00,VWS V14.01,2013-06-21 02:27:00,
2013-06-20 22:32:00,64.4,48.5,30.20,SSW,207,3.7,4.5,56,0.00,,---,0.00,VWS V14.01,2013-06-21 02:32:00,
2013-06-20 22:37:00,63.7,48.0,30.20,SSW,197,4.7,5.2,57,0.00,,---,0.00,VWS V14.01,2013-06-21 02:37:00,
2013-06-20 22:42:00,63.5,48.1,30.20,South,169,3.8,4.5,57,0.00,,---,0.00,VWS V14.01,2013-06-21 02:42:00,
2013-06-20 22:47:00,64.3,49.1,30.20,SW,215,3.7,3.7,58,0.00,,---,0.00,VWS V14.01,2013-06-21 02:47:00,
2013-06-20 22:52:00,63.6,48.6,30.20,SW,219,2.6,2.9,58,0.00,,---,0.00,VWS V14.01,2013-06-21 02:52:00,
2013-06-20 22:57:00,63.4,48.4,30.20,SSW,194,5.8,5.8,58,0.00,,---,0.00,VWS V14.01,2013-06-21 02:57:00,
2013-06-20 23:02:00,62.8,47.9,30.20,SSW,200,4.2,6.5,58,0.00,,---,0.00,VWS V14.01,2013-06-21 03:02:00,
2013-06-20 23:07:00,63.9,49.2,30.20,SSW,202,3.8,3.8,59,0.00,,---,0.00,VWS V14.01,2013-06-21 03:07:00,
2013-06-20 23:12:00,62.9,48.7,30.20,South,184,3.6,4.2,60,0.00,,---,0.00,VWS V14.01,2013-06-21 03:12:00,
2013-06-20 23:17:00,62.9,49.1,30.20,South,173,4.5,4.5,61,0.00,,---,0.00,VWS V14.01,2013-06-21 03:17:00,
2013-06-20 23:22:00,63.0,50.0,30.20,SSW,208,6.0,6.6,62,0.00,,---,0.00,VWS V14.01,2013-06-21 03:22:00,
2013-06-20 23:27:00,63.0,50.3,30.20,SW,221,2.1,3.0,63,0.00,,---,0.00,VWS V14.01,2013-06-21 03:27:00,
2013-06-20 23:32:00,63.6,51.3,30.20,SSW,211,3.5,3.5,64,0.00,,---,0.00,VWS V14.01,2013-06-21 03:32:00,
2013-06-20 23:37:00,62.8,50.8,30.20,West,264,0.7,0.7,65,0.00,,---,0.00,VWS V14.01,2013-06-21 03:37:00,
2013-06-20 23:42:00,62.4,50.8,30.20,SSW,193,2.0,3.0,66,0.00,,---,0.00,VWS V14.01,2013-06-21 03:42:00,
2013-06-20 23:47:00,62.3,51.2,30.21,West,274,2.2,6.5,67,0.00,,---,0.00,VWS V14.01,2013-06-21 03:47:00,
2013-06-20 23:52:00,62.2,51.4,30.21,WSW,239,2.9,4.8,68,0.00,,---,0.00,VWS V14.01,2013-06-21 03:52:00,
2013-06-20 23:57:00,61.9,51.2,30.21,SSW,193,2.2,2.5,68,0.00,,---,0.00,VWS V14.01,2013-06-21 03:57:00,